Find Starlink 31937

NORAD ID: 59871 Int'l Des: 2024-098 Owner: SPXS Country: US Constellation: starlink operational
LEOCIRCULAR

リアルタイム位置

3D地球を読み込み中...

Starlink 31937について

説明を読み込み中...

次回通過

Passes for default location (London). Set your location on the main map for personalized predictions.

高度履歴

Loading altitude history...

軌道要素

1 59871U 24098P 26125.49159176 -.00000545 00000-0 -10301-4 0 9996
2 59871 43.0027 310.2543 0000768 267.1900 92.8864 15.27593198110618
Epoch: May 5, 2026 • Age: 14 hours

現在のステータス

高度 482.2 km
速度 7.63 km/s
衛星直下点 12.92°N, 67.05°E
打ち上げ日 May 24, 2024
運用期間 1.9 years
タイプ internet

技術仕様

分類 Payload
質量 730.00 kg
乾燥質量 700.00 kg
総質量 730.00 kg
長さ 0.30 m
直径 4.10 m
スパン 29.00 m
形状 Box + pan
製造者 SPXS
バスタイプ Starlink V2M
フェーズステータス In Orbit
所有者/国 SPXS/US

Most Searched